Theta_e
317 317 317 317 317 316 316 314 313 312 311 309 310 311 302 303 302 306 304 307 309 308 304 310 309 309 311 316 320 322 327 325 325 324 325 322 324 319 313 316 318 317 315 310 310
317 317 317 317 316 317 316 316 316 314 311 309 305 310 302 302 307 306 305 303 302 305 310 309 308 310 313 316 321 323 326 325 321 321 323 321 320 319 315 317 318 313 308 308 309
318 316 315 316 316 315 316 316 316 316 311 309 307 305 302 302 308 306 305 302 301 305 310 309 307 311 315 316 320 321 322 318 319 318 315 317 316 317 315 316 318 315 308 306 307
315 312 313 313 314 316 316 316 316 316 306 305 308 304 301 307 306 303 301 301 301 304 309 307 306 311 314 317 318 320 319 319 315 312 312 312 310 311 311 313 307 306 307 306 305
311 310 310 312 312 312 312 313 315 317 305 307 310 306 306 306 305 301 300 301 303 305 309 307 307 311 314 314 316 319 318 316 316 309 308 308 308 308 307 308 305 305 305 305 304
308 308 308 309 310 310 311 310 314 312 302 302 308 307 306 304 302 301 301 302 307 308 308 307 308 310 310 312 314 310 313 315 309 309 308 306 306 307 306 305 306 304 303 303 304
306 306 306 307 308 309 310 311 310 307 301 300 308 308 304 304 301 301 301 303 305 307 308 307 308 309 310 309 308 308 309 312 309 306 306 304 303 304 304 305 305 304 303 303 303
303 303 304 305 306 307 310 311 310 304 301 302 305 307 303 301 302 302 302 303 304 305 306 307 306 308 308 307 307 307 307 307 308 307 304 303 304 307 303 303 303 302 301 303 303
300 301 302 303 304 305 308 309 310 302 302 302 307 305 303 300 301 302 303 304 304 304 305 304 306 308 306 307 307 307 307 305 306 305 305 303 305 303 303 303 302 302 301 302 303
299 299 299 300 302 303 306 309 308 302 306 308 303 302 302 302 302 302 302 304 306 306 305 305 306 307 307 307 310 309 305 305 306 303 303 303 302 303 302 302 301 302 301 300 302
299 299 299 299 300 301 305 308 312 309 305 308 310 304 303 301 301 302 303 304 306 307 307 307 306 305 306 306 307 306 305 306 304 302 302 301 302 302 303 301 301 301 301 300 301
301 300 300 300 299 302 308 309 306 304 307 309 310 310 303 302 302 302 302 304 305 306 306 305 304 306 306 307 307 306 305 304 303 301 300 301 302 303 303 303 301 301 301 301 302
299 299 300 299 302 307 309 304 304 305 309 312 309 307 304 302 303 303 303 304 304 304 305 306 305 305 305 303 304 304 304 305 304 302 301 302 305 306 306 306 306 305 303 301 301
297 297 298 298 304 302 306 303 304 305 314 314 307 304 303 303 304 302 303 303 304 303 305 305 304 303 303 304 304 304 302 302 303 304 310 306 309 309 306 305 305 304 303 302 302
295 296 297 298 299 302 305 305 302 306 312 312 304 302 303 303 302 301 301 302 303 302 304 304 303 302 304 304 304 304 302 303 304 305 305 306 306 309 306 306 305 304 303 302 303
294 294 295 297 298 301 303 303 305 312 310 309 304 304 303 303 303 301 302 301 301 302 302 300 299 301 302 301 300 302 304 304 305 306 307 308 306 310 306 306 305 304 304 304 305
294 294 294 296 299 298 299 307 310 312 310 311 306 304 305 305 304 303 302 301 302 303 303 300 300 299 300 302 302 304 303 313 311 305 308 306 306 307 305 305 305 305 304 304 304
294 294 295 297 298 298 300 309 308 307 309 308 304 305 306 305 304 304 304 302 301 303 306 304 304 300 299 302 302 303 308 318 312 318 313 301 302 304 303 303 303 304 304 304 303
293 293 296 298 298 301 306 309 306 308 308 309 304 308 308 305 305 304 304 305 304 302 305 306 304 299 299 300 302 302 302 302 306 297 305 308 305 306 302 303 301 301 302 303 303
293 293 298 298 299 301 304 305 306 308 311 309 312 308 312 307 303 304 306 305 305 302 304 309 312 299 300 300 301 301 299 304 304 308 309 312 311 306 302 300 301 301 300 301 302
293 294 299 295 299 302 302 304 305 305 305 309 308 310 309 308 305 306 309 308 304 304 303 305 311 301 299 298 300 300 303 304 306 310 314 314 313 307 304 301 300 300 299 300 302
293 293 294 292 298 300 302 303 304 303 304 305 309 309 308 309 307 311 313 309 302 302 304 302 307 304 301 298 298 300 303 305 311 306 304 307 310 304 303 304 302 301 300 301 301
294 293 293 295 296 298 299 300 298 302 303 306 307 309 309 308 308 307 307 301 302 301 302 301 305 305 304 299 298 298 299 302 303 306 305 306 307 300 301 300 300 301 300 299 299
293 293 295 297 296 296 296 295 297 295 299 302 303 304 306 308 306 307 310 302 301 300 300 303 309 303 306 306 302 299 299 300 303 302 301 305 306 307 303 300 300 299 299 300 298
294 293 293 292 292 292 292 292 292 295 296 296 302 302 304 306 306 306 308 304 301 301 301 303 303 307 308 304 300 302 302 300 300 300 301 302 305 305 308 301 299 299 301 301 299
293 293 293 292 292 292 291 291 292 293 294 293 293 295 298 301 299 299 297 308 307 300 300 299 300 301 302 303 303 301 300 300 300 299 299 299 300 304 304 305 300 299 296 297 295
292 292 292 292 291 291 291 291 291 291 291 292 295 294 294 297 295 294 295 299 306 302 299 299 302 302 307 304 303 302 302 301 299 298 299 299 300 302 303 302 302 299 298 297 296
Wind_Speed
18 18 18 18 18 19 20 20 20 19 18 16 15 14 12 12 12 6 7 5 5 6 4 4 7 10 12 7 12 9 7 10 12 13 3 4 4 4 4 2 1 4 5 9 16
18 19 19 21 22 21 22 22 22 22 20 18 15 13 11 12 11 12 10 9 9 7 4 8 9 11 6 9 5 6 8 10 6 7 5 6 2 5 4 7 5 6 9 11 12
14 16 18 19 21 24 23 24 24 24 21 18 15 12 9 10 6 1 12 10 6 7 6 9 12 10 11 8 8 7 12 10 4 6 7 6 1 1 2 6 7 11 13 10 9
14 17 18 18 20 21 23 24 25 26 25 20 14 10 7 3 4 2 4 5 6 6 8 7 6 9 9 10 10 13 12 17 4 7 3 4 6 4 7 6 5 8 8 9 7
19 20 20 19 20 23 27 27 25 26 29 20 13 7 2 4 6 2 3 3 4 7 11 8 9 9 7 10 9 17 11 4 4 7 4 7 6 6 9 9 8 7 4 4 6
21 21 22 23 23 24 26 30 31 34 26 15 9 5 3 5 3 1 2 3 4 9 10 11 4 8 4 8 11 5 7 10 3 2 5 3 6 5 7 11 9 10 8 8 8
23 24 25 25 26 26 26 30 35 31 15 10 6 7 6 8 2 1 4 3 5 7 5 7 7 3 3 2 4 4 4 5 4 6 3 2 8 15 11 4 5 6 7 9 9
24 26 27 27 28 29 27 30 36 20 11 5 6 5 5 4 4 2 3 2 3 3 5 3 5 2 4 1 1 4 3 3 4 12 5 5 8 3 11 10 9 9 8 8 8
25 27 28 29 30 30 28 29 32 10 4 3 4 4 4 1 2 6 5 3 6 5 1 2 3 1 1 2 3 5 4 8 3 6 5 9 7 5 6 5 8 9 9 8 7
25 27 29 29 30 30 26 25 19 6 0 4 6 3 3 1 4 4 5 8 2 6 3 3 3 3 4 5 5 5 5 5 8 7 4 6 17 11 8 8 9 9 9 9 9
26 28 29 30 30 29 24 13 2 3 6 6 9 8 3 3 5 4 5 6 4 4 5 5 5 9 9 10 8 4 4 5 6 3 3 10 15 13 10 11 10 10 9 10 9
25 29 31 34 36 19 8 4 4 3 10 13 18 14 5 5 3 6 9 6 5 6 6 3 11 9 3 5 11 2 4 7 2 6 2 6 13 15 12 11 15 14 10 9 9
28 31 34 41 22 11 12 8 6 5 6 9 2 5 6 9 6 11 10 4 5 8 9 6 1 4 3 2 3 4 7 5 2 4 7 6 8 6 3 3 1 1 7 10 10
27 30 33 38 7 22 4 13 9 5 4 5 4 3 5 5 4 4 12 2 5 5 7 8 3 4 3 4 6 4 1 3 3 1 3 4 5 5 6 7 6 6 7 8 9
26 28 28 22 15 12 11 18 12 4 5 4 4 2 5 6 5 3 1 1 6 5 3 3 5 5 4 2 8 2 2 2 1 3 3 4 1 7 4 7 8 9 8 9 10
29 30 26 18 16 7 15 15 5 1 7 2 4 5 5 7 4 5 5 3 3 2 2 2 1 3 1 4 3 7 4 2 1 1 1 9 6 4 5 5 7 9 7 8 9
31 34 24 14 8 19 19 5 2 4 6 4 3 3 8 7 8 7 8 8 6 5 6 3 3 2 2 5 2 4 3 1 2 1 5 3 0 8 3 0 6 10 10 10 9
33 30 19 12 13 12 9 2 7 3 6 2 2 3 5 5 5 9 7 6 12 5 1 6 5 9 7 2 5 7 4 3 7 4 3 3 6 6 4 7 8 8 10 9 10
30 25 12 8 8 5 2 6 5 5 3 3 2 2 4 3 1 6 7 6 7 14 7 6 4 2 3 3 2 5 4 1 4 1 3 5 7 5 6 4 6 6 4 7 9
23 19 3 16 8 3 3 10 5 6 2 2 5 5 4 4 5 8 8 6 8 13 5 2 2 1 3 0 2 1 3 3 2 3 4 4 4 6 8 9 9 9 9 8 7
12 5 7 19 8 2 7 7 6 13 15 6 4 4 5 5 5 4 5 2 7 4 8 5 6 3 4 7 8 3 2 2 1 2 4 1 6 4 8 11 13 11 9 9 9
5 4 11 22 2 3 6 4 4 15 18 8 10 9 4 3 4 4 6 2 6 7 7 1 3 4 8 4 2 3 6 6 4 5 3 2 6 2 4 7 9 8 8 6 8
3 4 6 4 3 4 6 10 12 11 14 5 7 7 5 5 4 7 5 3 4 6 6 5 3 2 1 1 1 5 6 4 3 1 6 5 5 2 2 5 6 8 7 5 6
3 3 2 1 3 8 7 8 7 17 16 14 18 14 9 7 5 3 2 2 2 0 2 7 2 5 6 2 4 5 8 12 7 4 5 9 4 2 3 4 4 4 6 7 7
3 3 3 2 2 7 11 11 15 10 8 10 5 8 14 11 9 11 9 4 2 4 2 5 5 2 11 5 2 3 4 13 16 16 10 5 14 13 6 8 8 8 5 4 7
3 3 2 3 3 9 10 8 14 13 6 12 12 21 13 10 8 7 11 8 6 4 3 1 2 3 6 12 9 11 11 11 17 16 15 16 16 7 7 6 5 8 4 8 8
7 14 6 8 6 6 10 12 13 14 14 14 11 10 14 11 13 16 16 16 6 9 6 7 5 4 4 1 3 9 19 20 8 7 12 16 14 3 7 10 9 7 8 10 9
Wind_Direction
1 2 360 357 353 350 346 343 340 334 330 329 327 322 320 318 313 275 247 226 190 243 248 245 234 226 241 241 238 228 248 245 251 256 233 109 164 125 31 317 6 98 52 96 128
356 356 356 354 352 347 345 341 337 335 329 326 324 320 321 321 311 257 245 239 243 235 232 223 211 206 212 224 199 216 223 233 256 12 13 102 318 138 169 201 196 128 106 129 148
354 350 350 347 344 344 342 339 338 333 329 322 318 318 316 330 285 169 202 234 231 216 234 251 239 200 218 217 207 215 239 230 278 33 27 332 238 243 222 252 200 198 164 166 184
348 349 352 344 341 338 335 333 333 331 328 318 309 307 317 317 288 158 187 232 217 206 232 224 251 197 211 216 208 250 228 253 58 64 352 265 340 312 227 243 72 49 93 146 172
353 349 351 345 344 344 344 339 332 328 326 308 294 291 325 230 259 214 261 225 203 189 215 213 221 200 215 206 246 225 259 283 322 104 262 287 261 260 271 257 142 122 98 176 199
346 347 344 343 340 337 338 340 335 331 323 305 273 245 226 244 182 245 224 165 177 191 218 231 228 241 301 265 229 37 288 245 248 297 240 255 266 250 241 229 225 172 187 217 208
355 348 344 337 333 333 332 332 334 330 328 311 235 196 247 249 197 259 154 172 177 217 230 237 321 250 315 290 38 19 301 289 215 205 256 84 270 235 223 150 201 241 204 203 208
346 346 342 338 332 325 324 324 329 324 326 319 173 195 261 206 186 111 144 101 149 211 298 200 270 350 333 105 194 211 219 232 281 182 154 180 263 324 185 174 202 219 210 199 200
347 343 338 336 331 324 319 318 323 316 326 133 164 233 262 171 209 171 173 140 125 128 154 177 256 196 215 211 201 224 244 201 168 176 149 196 273 97 111 201 215 207 197 172 192
350 348 344 333 329 326 322 322 309 285 168 216 263 266 185 159 137 148 168 158 191 138 119 208 219 213 220 192 209 184 217 247 204 196 228 221 256 266 195 205 221 207 195 189 172
346 344 341 340 330 323 329 337 292 198 242 256 277 254 166 113 147 180 143 162 188 232 176 199 210 218 203 219 235 57 323 307 87 90 219 231 259 256 247 204 203 221 207 200 171
349 345 339 334 328 327 330 320 49 318 296 260 253 250 147 189 163 164 161 188 194 208 190 151 235 230 265 216 234 228 269 264 73 136 158 280 275 268 242 224 198 201 223 205 158
350 347 347 335 342 27 339 40 346 333 266 290 214 220 182 184 223 178 175 195 202 212 211 210 161 99 174 166 173 227 221 245 162 188 227 296 275 234 207 198 120 223 197 209 176
342 342 345 344 45 334 26 347 338 328 279 261 183 141 149 225 222 102 207 186 205 239 194 237 183 160 176 220 174 225 104 104 112 182 243 182 277 281 184 200 198 213 225 219 169
340 336 338 347 318 322 339 323 328 278 319 83 140 134 153 190 133 155 330 69 196 193 156 197 162 190 181 214 176 199 91 123 133 240 33 223 111 268 96 207 190 191 204 187 151
344 338 327 334 318 309 320 323 311 101 246 226 121 172 169 211 178 136 170 267 345 119 233 64 342 297 40 62 12 140 105 116 284 253 317 221 172 268 195 225 172 157 182 157 150
338 334 322 315 296 310 319 302 142 223 335 293 259 174 224 176 202 189 179 183 177 155 198 139 189 104 182 89 42 211 148 94 339 2 225 14 115 247 202 288 152 156 170 169 157
337 336 330 311 312 292 316 249 218 230 240 292 296 223 226 183 220 192 182 208 222 254 187 177 256 169 188 217 193 194 194 190 199 193 208 74 231 254 32 120 84 118 162 163 165
337 334 328 343 320 316 264 215 220 219 201 193 79 192 225 244 234 177 223 205 214 199 192 186 203 87 25 19 34 184 201 184 102 97 65 205 263 265 145 143 131 147 148 176 172
332 326 343 357 333 311 232 239 242 237 28 309 234 187 241 201 190 182 201 228 218 175 100 299 122 221 124 39 130 148 298 97 315 170 246 273 264 238 202 190 187 184 191 198 188
334 329 18 2 349 260 229 232 252 264 287 269 242 269 228 210 209 211 230 286 177 135 180 178 155 110 120 204 181 142 265 248 125 210 190 188 255 215 202 186 184 188 187 187 177
308 307 298 333 306 224 253 246 325 291 308 314 299 272 230 244 234 240 228 187 103 140 168 223 151 184 207 131 340 207 199 200 160 236 235 144 268 339 40 143 153 167 164 150 151
293 279 312 9 267 257 296 308 318 303 282 262 287 270 238 206 240 209 230 8 127 162 161 169 210 183 256 330 186 214 194 213 100 111 205 154 254 344 37 84 96 135 150 167 174
293 295 272 183 294 289 301 317 313 328 306 292 266 264 287 270 233 269 257 145 53 65 54 141 203 204 190 112 120 193 200 196 174 185 171 217 273 243 214 192 159 191 199 201 205
211 239 205 240 272 297 306 293 303 310 338 334 312 321 286 263 265 260 228 147 192 192 169 157 203 219 269 260 245 244 186 199 210 220 200 212 216 241 201 202 206 206 212 235 245
248 254 283 265 268 272 284 282 285 290 292 317 305 307 312 320 3 344 352 215 191 158 154 275 218 188 263 244 220 240 228 214 220 230 256 272 269 234 253 209 190 209 184 240 236
234 257 222 221 224 257 250 268 278 291 286 277 304 328 320 326 324 305 289 270 246 160 154 154 159 140 254 319 151 281 231 219 195 194 203 229 238 249 246 248 230 221 206 229 231